Wind_Speed
17 21 25 18 12 10 3 1 2 3 4 3 3 4 5 5 6 7 8 8 7 5 4 3 4 5 2 6 8 7 8 8 7 11 10 9 9 17 20 20 22 21 20
17 4 4 15 10 6 3 1 1 4 5 4 2 2 3 4 5 7 9 9 7 6 5 4 4 6 2 3 4 4 5 5 6 8 9 8 10 9 12 18 24 26 22
11 11 14 12 9 6 3 1 1 2 3 3 3 2 2 3 4 6 8 8 8 7 6 4 4 3 3 2 2 2 4 5 6 6 4 7 6 8 10 14 17 18 17
6 5 7 8 7 4 2 2 1 1 2 4 4 4 4 4 4 4 5 6 6 6 7 7 6 4 3 3 4 5 5 6 7 9 9 9 8 10 13 15 14 18 20
0 3 6 7 6 5 4 3 2 2 3 5 6 5 5 5 5 5 5 5 5 5 5 5 5 4 3 3 4 5 7 7 8 9 10 10 10 11 14 15 15 20 18
4 3 7 7 7 7 6 4 3 3 6 8 8 7 6 5 4 3 3 4 4 4 5 5 5 4 4 4 5 6 6 7 8 9 10 10 10 11 13 14 16 18 20
4 5 8 9 9 8 6 7 8 8 14 11 10 7 6 6 5 4 3 3 3 4 4 5 5 5 5 7 8 8 9 10 10 10 11 11 12 14 16 17 17 17 17
6 3 11 16 18 14 13 13 18 19 14 8 8 7 5 6 4 4 3 2 2 3 3 4 6 6 7 8 8 8 8 8 10 10 11 13 15 17 16 16 17 17 18
8 6 5 5 4 5 10 17 22 26 11 8 9 11 9 10 8 3 4 4 4 5 5 5 5 8 11 11 10 11 10 10 10 11 12 13 14 14 15 16 16 17 19
9 9 7 6 3 4 2 1 3 8 8 8 10 10 10 14 12 10 10 8 6 7 7 7 9 11 12 14 13 13 12 11 10 10 11 12 13 14 15 15 16 15 15
10 11 10 8 9 12 10 6 3 11 10 10 12 11 12 15 13 13 6 7 9 11 11 14 12 11 16 19 14 14 12 11 12 12 13 14 14 15 14 14 13 12 12
12 14 15 16 17 16 17 15 19 16 15 11 13 14 14 16 16 10 8 8 8 10 14 12 13 16 17 14 14 12 12 12 12 12 12 12 12 13 14 13 12 12 12
15 15 17 17 18 20 20 18 17 21 22 21 19 18 15 16 19 11 9 12 12 13 14 15 15 19 15 13 12 13 12 12 12 12 12 12 13 14 14 14 13 12 12
14 17 18 19 21 22 22 21 18 17 19 20 22 19 15 17 19 12 11 14 12 12 13 16 19 15 14 14 13 12 11 11 12 12 14 14 15 15 16 15 14 14 13
14 14 16 16 16 18 17 16 18 18 19 16 16 17 19 15 12 12 12 12 13 16 16 17 16 14 14 13 12 11 11 11 11 11 12 13 14 14 15 15 15 14 12
14 13 12 13 14 15 16 15 15 17 14 18 22 20 16 13 15 14 13 13 16 18 14 13 13 12 11 11 11 11 11 11 12 13 14 15 15 16 15 16 15 14 14
15 15 14 13 14 16 17 17 17 19 16 22 19 17 18 17 16 13 12 13 14 14 13 12 12 11 10 9 9 10 11 12 13 14 15 14 14 14 13 12 13 13 12
18 16 14 12 12 12 13 13 14 16 17 16 18 15 15 14 13 13 13 14 14 13 11 11 11 10 9 9 9 10 11 12 13 13 14 14 14 13 12 12 12 13 13
20 16 12 10 11 11 13 14 14 14 15 15 14 14 14 14 14 13 13 13 12 11 10 11 11 10 10 10 10 9 9 11 13 14 14 15 15 14 13 13 13 15 15
20 18 13 11 11 12 13 14 14 14 14 13 13 13 13 13 13 13 13 12 10 11 12 12 11 11 12 12 11 11 12 14 15 15 15 17 16 15 14 14 13 13 13
19 17 14 12 12 12 13 14 14 13 12 12 12 13 13 13 12 11 11 11 11 12 12 11 11 12 12 13 12 14 13 12 14 15 15 17 17 16 16 16 16 16 17
19 17 17 15 13 13 14 14 13 13 12 12 13 13 12 11 11 11 11 11 12 13 13 13 12 10 9 12 16 19 17 16 16 21 22 22 21 18 18 18 18 19 19
21 19 18 16 15 16 16 16 15 13 13 13 12 12 12 11 12 12 12 14 15 15 15 14 14 13 16 17 18 20 20 24 25 25 25 25 25 25 25 25 26 25 24
21 20 18 18 18 18 18 17 16 15 13 11 11 10 10 11 12 14 15 17 17 18 20 20 18 18 19 21 22 24 24 26 27 27 25 26 26 26 26 26 26 26 26
21 21 21 22 21 20 20 17 14 12 12 11 14 14 12 13 14 14 20 19 21 22 22 22 23 23 23 24 25 26 26 27 27 27 26 26 26 26 26 26 27 27 27
20 21 23 22 21 21 20 17 15 14 13 19 16 18 19 22 21 22 23 21 23 27 25 24 26 29 28 28 28 28 27 27 27 26 26 26 26 27 27 27 27 27 27
Wind_Direction
312 253 211 185 218 217 223 335 353 346 345 348 24 34 43 26 23 13 24 30 27 21 20 21 19 14 219 216 213 221 242 250 241 230 269 278 269 251 244 260 272 277 283
11 314 229 150 175 184 176 122 359 11 347 336 16 32 38 21 14 26 34 28 31 21 22 31 45 68 83 189 210 241 264 268 283 283 286 292 290 258 269 280 270 266 271
57 115 144 154 169 188 158 189 253 306 315 345 12 23 25 10 17 28 32 28 39 43 32 28 41 60 113 161 227 266 293 292 292 309 341 311 315 260 247 264 285 297 297
70 111 152 171 191 213 227 255 282 343 340 338 356 1 7 6 1 16 23 25 23 35 40 36 34 25 347 320 302 300 297 296 295 296 295 295 293 276 274 270 283 281 287
138 170 192 212 222 221 237 266 309 334 350 342 335 343 356 358 352 346 346 0 2 2 7 9 8 12 8 349 322 302 293 292 293 292 292 292 288 263 287 281 291 288 292
302 223 230 228 239 248 251 252 270 348 348 341 343 332 333 335 335 335 323 322 325 334 343 339 333 336 334 326 317 308 301 295 293 291 292 291 288 287 290 291 293 294 293
291 278 250 249 259 251 259 270 256 288 312 307 326 328 318 315 321 335 327 315 318 342 2 13 10 2 346 337 326 315 304 296 290 286 284 286 289 292 295 296 298 300 300
261 314 272 283 292 244 255 266 263 286 287 283 304 321 325 324 304 311 304 303 290 340 338 345 341 339 342 343 339 328 314 301 292 289 289 291 295 298 299 301 300 302 300
270 251 40 311 297 311 282 268 276 279 220 275 295 325 340 339 323 307 291 270 272 303 302 316 329 338 334 328 335 337 323 310 300 293 291 292 293 295 297 299 298 298 299
265 253 272 265 228 214 105 260 86 185 217 277 299 315 305 319 324 315 297 259 274 300 277 304 306 318 328 333 322 326 320 313 311 308 303 298 296 296 297 298 298 298 296
272 265 259 256 264 271 255 251 190 287 292 280 288 288 282 296 310 283 278 264 278 285 296 303 313 311 314 315 310 319 318 315 312 309 308 309 310 310 308 305 302 299 296
282 271 262 257 272 281 282 271 250 258 250 274 291 283 280 297 306 287 270 268 289 294 293 293 299 314 315 312 316 316 315 315 315 316 316 318 318 319 321 321 319 315 309
279 275 266 263 270 278 281 279 262 254 256 273 291 290 285 302 309 285 253 271 275 290 287 294 297 306 306 316 319 320 323 326 327 328 327 326 326 326 324 323 322 319 314
275 271 269 269 269 273 272 266 258 256 260 265 272 278 276 285 298 287 276 275 277 277 284 293 299 311 314 322 326 328 331 332 330 329 328 329 330 330 329 328 326 324 322
279 270 267 268 269 270 269 266 259 253 253 255 254 252 264 276 286 287 274 278 276 275 290 290 303 311 320 324 324 327 330 330 329 330 328 328 329 329 328 327 326 325 324
276 271 267 268 271 272 271 266 260 251 249 228 232 262 274 273 292 281 278 267 262 274 285 289 297 304 307 313 320 324 327 330 329 328 329 329 328 327 328 329 331 332 329
276 279 277 267 258 256 257 258 252 232 229 230 257 265 260 276 276 275 275 277 279 277 282 284 287 289 296 303 315 324 323 325 328 330 333 335 334 332 333 334 337 338 337
279 277 275 271 265 255 248 243 238 234 242 251 260 259 264 265 269 274 276 275 273 275 276 277 279 281 289 297 307 313 315 321 326 329 329 325 324 326 327 327 328 325 323
277 268 266 262 258 255 254 251 249 245 238 243 246 251 255 262 267 269 268 267 271 274 269 265 266 272 277 291 302 306 312 316 317 318 319 320 319 320 319 321 320 318 314
264 252 250 256 253 250 245 238 235 234 235 237 242 251 259 264 264 261 259 256 251 251 254 256 262 270 284 292 296 303 309 309 313 313 313 320 318 319 317 315 314 309 307
248 247 245 247 247 239 234 228 225 224 228 236 246 253 258 258 258 257 255 251 246 246 248 250 262 274 281 286 289 295 294 294 296 304 304 307 309 308 305 305 305 304 303
250 244 243 240 238 233 228 223 220 224 233 243 250 253 254 256 253 254 251 251 254 256 258 259 255 257 262 259 268 285 283 282 284 294 298 301 303 301 300 300 298 296 294
251 241 236 233 225 226 221 220 222 228 233 240 248 256 259 256 254 256 258 261 266 271 268 269 266 266 280 284 287 289 287 286 291 291 291 295 298 299 299 300 300 300 298
245 240 234 228 224 219 220 221 225 228 226 234 244 249 277 289 279 275 266 263 263 270 266 280 277 277 287 288 290 288 287 285 285 290 294 295 295 296 297 298 299 299 299
236 233 230 224 222 218 219 220 220 220 238 237 237 256 272 264 276 266 269 270 258 262 266 276 274 282 285 289 289 288 285 285 288 290 292 293 295 296 297 299 299 299 298
228 231 226 222 218 219 218 218 221 227 227 243 257 260 265 287 278 280 274 271 272 265 255 271 272 281 288 289 289 287 286 287 288 289 291 293 295 296 298 297 298 298 297
Height
3170 3163 3158 3166 3171 3178 3177 3177 3176 3176 3174 3173 3171 3169 3168 3169 3168 3166 3164 3161 3160 3159 3158 3157 3157 3155 3155 3157 3157 3158 3160 3160 3161 3161 3160 3161 3160 3161 3164 3165 3165 3165 3165
3164 3152 3165 3166 3173 3175 3176 3175 3175 3173 3173 3172 3171 3170 3168 3168 3167 3166 3163 3162 3161 3160 3159 3158 3157 3156 3156 3157 3158 3159 3158 3159 3159 3159 3158 3158 3159 3160 3162 3161 3160 3160 3161
3166 3164 3166 3169 3172 3174 3173 3173 3173 3174 3173 3172 3170 3169 3168 3167 3166 3165 3164 3163 3162 3160 3159 3158 3157 3157 3157 3157 3158 3158 3158 3158 3157 3156 3156 3157 3158 3158 3158 3158 3157 3157 3156
3169 3170 3171 3172 3174 3174 3175 3174 3173 3172 3172 3171 3170 3168 3167 3166 3166 3164 3164 3164 3163 3161 3160 3160 3159 3158 3157 3157 3157 3156 3156 3156 3156 3155 3155 3155 3156 3156 3156 3156 3155 3154 3153
3170 3171 3172 3173 3174 3173 3174 3173 3172 3172 3172 3171 3170 3168 3166 3165 3165 3165 3164 3164 3163 3162 3161 3160 3160 3159 3158 3157 3157 3156 3155 3155 3154 3153 3153 3153 3153 3153 3153 3152 3151 3150 3148
3171 3171 3171 3172 3172 3173 3173 3172 3173 3172 3172 3171 3169 3168 3166 3165 3164 3163 3163 3163 3162 3162 3160 3160 3159 3158 3157 3157 3156 3155 3155 3154 3153 3152 3151 3151 3150 3150 3149 3148 3147 3146 3144
3170 3170 3170 3170 3170 3171 3171 3171 3172 3170 3170 3170 3169 3167 3165 3164 3163 3162 3162 3162 3162 3161 3160 3160 3159 3158 3157 3156 3155 3153 3152 3152 3151 3150 3149 3148 3148 3147 3146 3144 3143 3141 3140
3168 3168 3168 3167 3165 3165 3166 3167 3168 3168 3168 3167 3167 3166 3164 3163 3162 3161 3161 3161 3161 3160 3160 3159 3159 3158 3157 3155 3154 3152 3151 3149 3148 3147 3147 3146 3145 3144 3143 3141 3140 3138 3136
3166 3166 3165 3163 3163 3163 3162 3162 3162 3162 3164 3165 3165 3164 3162 3162 3161 3160 3160 3159 3159 3159 3158 3158 3157 3157 3156 3154 3152 3150 3149 3147 3146 3145 3144 3143 3142 3141 3140 3138 3136 3134 3132
3163 3163 3163 3163 3162 3161 3161 3161 3160 3162 3163 3163 3163 3162 3161 3160 3159 3157 3157 3157 3157 3157 3156 3156 3155 3154 3153 3152 3150 3148 3146 3145 3144 3143 3141 3140 3139 3137 3136 3134 3132 3131 3129
3161 3161 3161 3161 3161 3161 3161 3161 3161 3162 3160 3160 3159 3158 3158 3157 3156 3155 3154 3154 3154 3154 3153 3153 3152 3151 3150 3148 3147 3145 3144 3142 3141 3139 3138 3136 3134 3132 3131 3129 3128 3126 3125
3158 3157 3156 3157 3157 3157 3157 3158 3158 3157 3157 3157 3156 3155 3155 3153 3152 3151 3151 3151 3151 3151 3150 3149 3149 3148 3146 3144 3143 3141 3140 3138 3137 3135 3134 3132 3130 3129 3127 3125 3123 3121 3120
3155 3153 3153 3152 3152 3152 3153 3153 3153 3152 3153 3152 3152 3152 3151 3151 3149 3148 3148 3148 3147 3147 3147 3146 3145 3144 3143 3141 3139 3138 3136 3135 3133 3132 3131 3129 3127 3125 3123 3121 3119 3118 3116
3150 3149 3148 3148 3148 3147 3148 3147 3148 3148 3147 3148 3148 3148 3148 3148 3147 3145 3145 3144 3144 3144 3143 3142 3141 3140 3139 3137 3136 3135 3133 3132 3131 3130 3128 3126 3124 3122 3120 3118 3116 3114 3112
3145 3144 3143 3143 3143 3143 3142 3142 3142 3142 3143 3143 3144 3144 3144 3144 3142 3142 3141 3141 3141 3140 3139 3139 3137 3136 3134 3134 3133 3132 3131 3130 3129 3128 3126 3124 3122 3120 3117 3115 3113 3111 3109
3142 3141 3140 3139 3138 3138 3137 3137 3136 3137 3137 3139 3139 3140 3139 3139 3139 3138 3137 3138 3137 3137 3136 3135 3134 3134 3132 3131 3130 3129 3129 3128 3127 3125 3123 3121 3119 3116 3114 3112 3110 3108 3106
3136 3136 3136 3134 3134 3133 3133 3133 3133 3133 3133 3134 3135 3134 3135 3135 3135 3134 3133 3133 3133 3133 3132 3132 3131 3131 3130 3129 3128 3127 3126 3125 3124 3122 3120 3118 3117 3114 3113 3110 3108 3105 3103
3131 3131 3130 3128 3128 3128 3128 3128 3129 3129 3129 3130 3130 3130 3130 3130 3130 3130 3129 3129 3129 3129 3129 3128 3128 3128 3127 3126 3125 3124 3123 3122 3120 3119 3117 3116 3114 3113 3111 3108 3106 3103 3101
3126 3125 3124 3124 3124 3124 3124 3124 3124 3124 3125 3125 3126 3126 3126 3126 3126 3126 3126 3126 3126 3126 3125 3125 3124 3124 3123 3123 3122 3121 3120 3120 3118 3117 3115 3114 3111 3109 3107 3105 3102 3099 3097
3120 3120 3119 3119 3119 3119 3119 3119 3120 3121 3121 3121 3121 3122 3122 3122 3122 3122 3122 3122 3123 3122 3122 3121 3120 3120 3120 3119 3118 3118 3117 3116 3115 3113 3112 3110 3107 3104 3103 3101 3099 3097 3095
3113 3113 3114 3114 3114 3114 3115 3115 3116 3117 3117 3117 3118 3118 3118 3118 3118 3118 3118 3118 3119 3119 3118 3118 3117 3115 3114 3114 3114 3113 3114 3115 3113 3109 3107 3105 3103 3100 3098 3096 3095 3093 3092
3108 3107 3108 3108 3109 3110 3110 3111 3112 3113 3114 3114 3114 3114 3114 3114 3115 3115 3115 3115 3115 3114 3114 3114 3113 3113 3113 3112 3111 3110 3109 3108 3107 3104 3101 3099 3096 3095 3093 3091 3089 3088 3086
3102 3102 3102 3103 3104 3105 3107 3108 3109 3110 3110 3110 3110 3110 3111 3111 3111 3111 3111 3110 3110 3110 3109 3108 3108 3107 3106 3105 3105 3103 3102 3100 3098 3096 3094 3092 3090 3087 3084 3082 3079 3077 3075
3096 3097 3098 3099 3100 3101 3102 3104 3105 3105 3106 3107 3107 3107 3107 3106 3107 3107 3106 3105 3105 3104 3103 3103 3102 3101 3101 3099 3098 3096 3095 3093 3091 3088 3086 3084 3082 3079 3077 3074 3071 3069 3066
3090 3092 3093 3094 3095 3097 3098 3099 3101 3103 3102 3102 3103 3103 3103 3104 3102 3103 3100 3099 3098 3098 3098 3097 3096 3094 3094 3092 3090 3089 3087 3085 3082 3080 3078 3076 3073 3071 3069 3066 3063 3061 3058
3085 3086 3087 3089 3091 3092 3094 3095 3097 3098 3099 3097 3097 3097 3097 3097 3096 3094 3093 3093 3092 3091 3090 3089 3089 3087 3086 3084 3083 3081 3078 3076 3074 3072 3070 3067 3065 3062 3060 3058 3055 3053 3050